Temperature
21 20 20 20 20 19 19 19 19 19 18 18 18 18 18 18 17 17 17 17 17 17 17 16 16 16 16 16 16 16 16 16 16 16 15 15 15 15 15 15 15 15 15
21 20 20 20 19 19 19 19 19 18 18 18 18 18 18 17 17 17 17 17 17 16 16 16 16 16 16 16 16 16 16 16 15 15 15 15 15 15 15 14 14 14 14
21 20 20 19 19 19 19 19 18 18 18 18 18 18 17 17 17 17 17 16 16 16 16 16 16 16 16 16 16 16 15 15 15 15 15 15 15 14 14 14 14 14 14
21 20 20 19 19 19 19 18 18 18 18 18 17 17 17 17 17 17 16 16 16 16 16 16 16 16 16 16 16 15 15 15 15 15 15 15 14 14 14 14 14 14 14
20 20 20 19 19 19 18 18 18 18 18 18 17 17 17 17 17 16 16 16 16 16 16 16 16 16 16 15 15 15 15 15 15 15 14 14 14 14 14 14 14 14 14
20 20 20 19 19 19 18 18 18 18 17 17 17 17 17 17 16 16 16 16 16 16 16 16 15 15 15 15 15 15 15 15 15 14 14 14 14 14 14 14 13 13 13
20 20 19 19 19 19 18 18 18 17 17 17 17 17 16 16 16 16 16 16 16 16 16 15 15 15 15 15 15 15 15 14 14 14 14 14 14 14 14 13 13 13 13
20 19 19 19 19 18 18 18 17 17 17 17 16 16 16 16 16 16 16 15 15 15 15 15 15 15 15 15 15 14 14 14 14 14 14 14 14 13 13 13 13 13 13
19 19 19 18 18 18 18 17 17 17 17 17 16 16 16 16 16 16 16 15 15 15 15 15 15 15 15 15 14 14 14 14 14 14 14 14 13 13 13 13 13 13 13
19 19 18 18 18 18 18 17 17 17 17 16 16 16 16 16 16 16 16 15 15 15 15 15 15 15 15 14 14 14 14 14 14 14 14 13 13 13 13 13 12 12 12
19 18 18 18 17 17 17 17 17 16 16 16 16 16 16 15 15 15 15 15 15 15 15 15 15 15 14 14 14 14 14 14 13 13 13 13 13 13 13 13 12 12 12
18 18 18 17 17 17 17 17 17 16 16 16 16 16 16 15 15 15 15 15 15 15 15 15 15 14 14 14 14 14 14 14 13 13 13 13 13 13 13 12 12 12 12
18 17 17 17 17 16 16 16 16 16 16 16 16 16 16 15 15 15 15 15 14 14 14 14 14 14 14 14 14 14 14 13 13 13 13 13 13 13 12 12 12 12 12
17 17 17 16 16 16 16 16 16 16 16 16 15 15 15 15 15 15 15 15 14 14 14 14 14 14 14 14 13 13 13 13 13 13 13 13 12 12 12 12 12 12 12
17 17 16 16 16 16 16 16 16 15 15 15 15 15 15 15 15 15 15 14 14 14 14 14 13 14 13 13 13 13 13 13 12 12 12 12 12 12 12 12 11 11 11
16 16 16 16 16 15 15 15 15 15 15 15 15 15 15 15 15 14 14 14 14 13 13 13 13 13 13 13 13 13 13 12 12 12 12 12 12 12 11 11 11 11 11
16 15 15 15 15 15 15 15 15 15 15 14 14 14 14 14 14 14 14 14 13 13 13 13 13 12 12 12 12 12 12 12 12 11 11 11 11 11 11 11 11 10 10
15 15 15 15 15 15 15 15 14 14 14 14 14 14 14 14 14 14 13 13 13 13 13 12 12 12 12 12 12 11 11 11 11 11 11 11 11 11 10 10 10 10 10
15 15 14 14 14 14 14 14 14 14 14 14 14 14 14 14 13 13 13 13 13 12 12 12 12 12 11 11 11 11 11 11 11 11 11 11 10 10 10 10 10 10 10
14 14 14 14 14 14 14 14 14 13 13 13 13 13 13 13 13 13 13 12 12 12 12 12 12 12 11 11 11 11 11 10 10 10 10 10 10 10 10 10 9 9 9
14 14 14 14 14 14 13 13 13 13 13 13 13 13 13 13 13 12 12 12 12 12 12 11 11 11 11 11 11 10 10 10 10 10 10 9 9 9 9 9 9 9 9
13 13 13 13 13 13 13 13 13 13 13 13 13 13 12 12 12 12 12 12 12 11 11 11 11 11 11 10 10 10 10 10 9 9 9 9 9 9 9 9 9 9 8
13 13 13 13 13 13 13 12 12 12 12 12 12 12 12 12 12 11 11 11 11 11 11 11 10 10 10 10 10 9 9 9 9 9 9 9 9 8 8 8 8 8 8
13 13 13 13 12 12 12 12 12 12 12 12 12 11 11 11 11 11 11 11 10 10 10 10 10 9 9 9 9 9 9 9 9 8 8 8 8 8 7 7 7 7 7
12 12 12 12 12 12 12 12 12 12 11 11 11 11 11 11 10 10 10 10 10 10 9 9 9 9 9 9 8 8 8 8 8 8 8 7 7 7 7 7 7 7 7
12 12 12 12 12 12 12 11 11 11 11 11 10 10 10 10 10 10 9 9 9 9 9 9 9 8 8 8 8 8 7 7 7 7 7 7 7 7 7 6 6 6 6
Wind_Speed
9 8 7 7 6 6 5 5 5 4 4 4 4 4 4 3 2 2 2 2 2 2 1 2 1 1 0 0 1 1 1 2 3 2 2 1 1 1 2 3 4 4 5
9 8 7 6 6 6 5 5 5 4 4 5 5 4 4 4 3 3 3 2 2 2 2 2 2 1 1 1 1 1 2 2 3 3 2 1 1 2 2 2 3 4 4
9 8 7 6 6 6 5 4 4 5 4 4 5 5 4 3 3 3 3 2 2 3 3 3 3 2 2 1 1 2 2 2 2 2 2 1 1 1 0 1 1 2 3
8 8 7 7 7 6 5 5 5 5 5 4 4 4 4 3 3 3 2 2 2 2 3 3 3 3 4 3 2 2 2 1 1 2 2 1 1 1 1 1 1 2 2
8 8 8 7 6 6 5 5 4 5 5 5 4 3 3 3 3 3 2 2 2 2 2 2 3 4 4 4 3 3 3 2 2 2 2 1 1 1 2 2 2 2 3
8 8 7 7 7 6 6 5 5 4 4 4 4 4 3 3 4 5 3 2 3 3 3 2 3 2 3 4 5 5 5 4 4 3 3 3 4 3 2 2 2 1 3
8 7 7 7 7 7 7 6 5 5 4 4 4 4 4 5 6 6 6 4 3 4 4 3 3 3 3 2 3 3 4 6 7 6 5 5 4 5 3 3 3 3 4
6 6 6 6 7 6 6 6 5 4 5 4 4 5 4 5 6 6 6 4 3 4 4 4 4 3 3 3 2 2 3 4 6 5 6 6 6 5 5 5 5 3 3
6 6 6 6 7 6 6 6 5 4 4 4 4 5 5 5 6 6 5 3 3 4 4 4 4 4 6 4 2 2 3 4 5 6 7 7 7 7 5 3 2 2 2
5 5 5 5 6 6 6 5 4 4 4 4 4 5 6 5 6 7 6 3 3 3 3 4 6 6 7 6 4 4 5 5 4 3 3 5 5 6 7 6 5 4 2
4 4 4 4 5 5 4 4 4 3 3 3 4 4 4 6 7 8 7 4 4 4 3 4 4 7 7 7 6 6 8 6 4 4 3 3 3 4 5 5 6 6 5
4 4 4 4 4 4 4 3 4 4 3 3 3 3 3 4 6 7 8 7 6 5 4 4 4 6 7 7 6 7 7 5 3 3 3 4 4 5 5 5 6 7 7
4 3 3 2 2 3 4 4 3 3 3 3 3 4 4 3 4 7 8 9 8 5 4 5 5 6 6 5 6 6 4 3 3 4 5 6 5 5 4 3 4 4 5
3 3 3 2 2 1 2 3 3 3 4 4 3 4 4 3 3 3 3 4 5 4 3 4 5 5 4 4 4 3 3 4 5 5 5 5 4 3 4 3 3 3 2
3 2 2 2 2 2 2 2 3 4 5 5 5 4 4 4 5 6 4 3 3 3 1 0 1 1 2 2 3 3 3 3 4 4 4 4 4 4 4 4 3 3 3
3 2 2 2 2 2 2 1 1 2 2 4 5 5 4 6 6 5 5 4 3 4 3 1 2 3 3 4 4 3 3 4 4 4 4 4 5 5 5 3 3 4 4
3 2 2 2 2 2 2 2 1 3 2 2 4 5 5 6 6 5 5 4 3 5 3 3 3 4 4 4 4 4 4 4 4 3 4 4 4 4 4 4 4 4 5
2 2 2 2 2 2 2 2 2 2 2 3 4 5 5 5 5 5 3 2 1 2 3 4 4 4 4 4 4 4 4 4 3 4 4 4 4 4 4 5 5 5 5
1 1 2 2 2 1 1 1 1 2 2 3 3 3 3 3 2 2 3 2 3 4 4 4 4 4 4 4 5 4 4 4 4 4 4 4 4 4 5 5 5 6 5
1 1 1 1 1 1 1 1 1 2 2 2 2 3 1 1 0 1 2 3 4 4 4 4 4 4 4 4 4 4 4 4 4 4 4 4 4 5 5 6 5 5 5
0 1 0 0 0 1 1 2 2 2 2 2 3 3 4 3 3 3 3 3 4 4 4 4 4 3 3 3 3 4 4 4 4 4 4 5 5 5 5 5 5 5 5
1 1 0 1 1 1 1 1 1 1 2 2 3 2 2 2 2 2 3 4 4 4 3 3 3 3 3 3 3 3 3 4 4 4 4 4 4 4 4 4 5 5 5
0 0 0 0 1 1 1 1 1 1 1 2 1 1 1 1 2 2 2 2 2 2 1 1 2 2 2 2 2 2 3 4 4 4 4 4 4 4 4 4 5 5 6
1 1 0 0 0 1 1 1 1 1 1 1 1 1 1 1 1 1 1 1 1 1 1 1 1 2 2 2 2 2 2 3 4 3 4 4 4 4 4 5 5 6 7
1 1 0 0 0 1 0 0 1 1 1 1 1 1 1 1 1 1 1 1 1 1 1 1 1 2 3 3 2 2 3 4 4 4 4 4 5 5 5 6 6 6 6
1 1 1 0 0 0 0 0 0 1 1 1 1 1 1 1 1 1 1 1 1 1 2 1 2 2 3 3 3 4 4 5 6 6 5 4 4 5 5 5 7 6 6
Wind_Direction
181 183 180 184 185 176 176 184 184 179 170 169 168 154 153 153 150 151 169 178 178 194 184 164 201 210 219 234 204 209 195 171 212 260 260 262 202 208 187 201 214 215 229
181 177 179 178 177 177 181 183 176 171 168 168 160 152 162 160 157 165 187 201 186 191 202 193 225 215 222 226 202 213 219 200 189 227 252 245 231 225 206 207 214 225 229
174 171 170 173 180 185 183 180 172 167 164 162 156 160 167 163 165 181 190 200 200 203 202 199 214 187 228 237 220 219 230 219 184 189 226 232 239 248 290 263 248 231 236
167 170 172 180 185 186 175 170 168 165 162 164 166 166 165 166 180 196 196 200 212 224 221 209 205 193 211 216 220 219 215 208 186 181 212 245 244 255 159 226 280 273 258
169 173 180 182 181 177 172 168 167 168 173 169 165 165 170 180 194 185 199 206 210 232 244 229 223 207 206 209 211 209 193 193 194 198 215 222 231 213 221 216 237 267 272
175 182 180 176 174 177 177 171 168 173 175 164 173 179 193 208 198 189 183 203 207 209 230 253 247 224 230 231 223 215 198 195 200 201 211 220 233 225 222 219 217 224 266
178 177 174 174 176 179 175 170 181 185 176 178 196 194 203 210 202 195 193 192 204 213 221 234 249 235 227 232 241 245 242 230 209 198 207 223 218 217 202 215 220 219 238
172 171 172 173 174 173 170 175 183 181 181 191 202 202 205 220 208 202 196 197 212 229 230 224 224 238 227 212 220 256 263 253 234 216 213 223 221 214 203 206 215 229 266
163 167 171 170 171 171 177 184 187 182 188 197 199 202 209 230 220 208 190 190 222 247 247 234 221 227 232 206 195 243 273 281 265 238 229 230 228 221 201 182 191 190 258
167 169 168 166 165 171 181 186 185 184 198 203 212 213 209 216 216 204 186 187 217 243 261 254 239 234 235 217 209 222 249 261 264 270 256 255 241 232 213 198 199 206 227
156 146 154 164 169 173 177 179 180 185 192 207 223 229 218 220 221 210 196 195 213 228 246 258 259 251 242 235 222 218 233 239 240 241 250 258 256 247 236 223 211 203 215
144 153 168 179 188 182 176 187 181 177 192 218 236 251 245 236 229 224 213 217 213 214 234 243 251 258 254 249 236 236 238 231 228 238 245 249 249 250 247 239 230 223 223
149 165 180 189 196 190 183 191 186 182 194 212 218 234 251 252 245 235 225 227 225 220 236 245 257 261 260 256 255 254 237 217 220 234 242 246 241 240 243 252 250 242 244
155 174 172 175 194 215 209 199 197 203 207 212 219 231 242 249 251 236 225 231 234 238 258 271 267 263 259 265 273 267 237 224 221 232 242 250 253 247 241 234 237 240 259
162 175 178 193 201 214 225 219 212 218 206 204 219 218 215 237 243 217 200 211 214 218 204 326 319 310 294 295 292 278 263 254 246 244 242 252 254 250 248 239 229 226 232
152 170 183 194 205 202 222 284 276 225 238 221 221 215 225 229 227 219 216 210 203 176 152 218 248 250 252 257 262 271 266 256 252 249 249 246 246 246 249 244 232 230 241
157 175 186 190 203 204 203 205 274 324 327 294 260 242 235 235 229 223 215 211 195 165 185 234 242 243 247 248 247 251 257 255 249 246 247 248 247 246 243 244 241 243 249
159 181 196 211 220 221 219 213 207 218 276 290 279 264 256 243 234 233 219 156 204 192 219 234 245 249 249 247 247 248 251 254 248 247 247 249 248 247 249 250 246 242 246
178 206 217 218 222 222 217 210 209 220 236 263 278 286 265 228 228 230 170 196 227 236 235 238 240 239 241 243 247 248 249 249 249 245 246 249 249 248 253 253 249 250 246
221 235 219 215 216 206 197 195 202 220 236 245 255 257 227 121 154 244 211 225 236 242 241 240 240 238 239 244 247 248 250 251 252 248 249 248 247 246 251 255 254 247 240
214 259 245 162 184 205 214 218 220 229 248 257 264 255 202 198 219 231 233 236 237 242 243 240 239 244 251 254 253 254 254 258 258 258 258 255 250 251 250 247 249 248 246
180 204 176 189 211 253 249 239 242 251 265 274 287 310 259 227 233 234 240 246 244 236 230 229 242 249 249 251 253 253 258 265 268 267 263 260 255 252 254 253 250 249 248
92 149 204 246 236 257 271 281 264 264 282 296 292 287 271 261 253 248 251 258 268 270 254 238 257 272 280 273 262 254 260 271 274 274 269 264 259 256 256 259 261 263 259
98 154 174 270 293 277 268 288 294 284 289 327 334 306 298 286 279 284 294 299 299 299 279 251 259 281 297 294 292 279 277 286 288 278 273 263 260 257 256 258 259 259 261
62 67 68 49 349 320 302 289 310 319 329 332 327 322 323 328 336 344 343 340 328 316 316 311 302 296 289 286 295 304 312 313 313 307 288 269 267 264 262 262 262 265 264
53 39 26 22 339 328 152 16 354 340 339 342 348 353 354 1 2 341 327 332 325 310 305 302 297 293 289 279 289 307 311 313 314 308 296 279 275 276 276 269 269 266 265
Height
1520 1521 1523 1524 1525 1526 1527 1528 1529 1529 1530 1530 1530 1531 1531 1531 1532 1532 1532 1532 1532 1532 1532 1532 1533 1533 1533 1533 1533 1533 1533 1533 1532 1531 1531 1531 1531 1530 1529 1529 1529 1528 1528
1517 1519 1520 1522 1523 1524 1525 1525 1526 1527 1527 1528 1528 1528 1529 1529 1530 1530 1531 1531 1531 1531 1530 1531 1531 1531 1531 1531 1531 1531 1531 1531 1530 1529 1529 1528 1528 1528 1527 1527 1526 1526 1525
1514 1516 1518 1519 1521 1521 1522 1523 1524 1525 1525 1526 1526 1526 1527 1527 1528 1529 1529 1530 1529 1529 1529 1529 1529 1529 1529 1529 1529 1528 1528 1528 1528 1527 1526 1526 1526 1525 1525 1524 1524 1523 1522
1511 1513 1515 1516 1518 1519 1519 1521 1522 1522 1523 1523 1524 1524 1525 1525 1526 1526 1527 1527 1527 1527 1527 1527 1527 1527 1526 1526 1526 1526 1526 1525 1525 1524 1524 1523 1523 1522 1522 1521 1520 1520 1519
1509 1510 1512 1514 1515 1516 1517 1519 1520 1521 1521 1521 1522 1522 1523 1523 1524 1524 1524 1524 1524 1524 1524 1525 1525 1525 1524 1524 1524 1523 1523 1522 1522 1522 1521 1520 1520 1519 1518 1518 1517 1517 1516
1506 1508 1510 1511 1512 1514 1515 1516 1517 1518 1519 1519 1520 1520 1520 1520 1521 1522 1522 1522 1522 1522 1522 1522 1522 1522 1522 1521 1521 1520 1520 1519 1519 1518 1518 1517 1516 1516 1516 1515 1514 1513 1512
1504 1505 1507 1508 1509 1510 1512 1513 1515 1516 1517 1517 1518 1519 1518 1519 1519 1519 1519 1520 1520 1520 1520 1520 1520 1520 1519 1519 1518 1517 1517 1516 1516 1515 1514 1514 1514 1513 1513 1512 1511 1510 1510
1502 1503 1504 1505 1506 1508 1509 1510 1511 1513 1514 1515 1515 1516 1516 1516 1516 1517 1517 1517 1517 1517 1517 1517 1517 1517 1516 1516 1515 1514 1513 1513 1512 1512 1511 1511 1510 1510 1509 1509 1508 1507 1507
1499 1500 1502 1503 1504 1505 1506 1507 1509 1510 1511 1512 1512 1513 1513 1514 1514 1514 1514 1514 1514 1514 1514 1514 1514 1513 1513 1512 1512 1511 1510 1509 1509 1508 1508 1507 1506 1506 1505 1505 1504 1503 1502
1498 1499 1500 1501 1502 1503 1504 1505 1506 1507 1508 1509 1509 1509 1510 1510 1511 1511 1511 1511 1511 1511 1511 1511 1511 1510 1510 1509 1508 1507 1506 1506 1505 1505 1504 1504 1503 1502 1501 1501 1500 1499 1498
1497 1498 1498 1499 1500 1501 1501 1502 1503 1504 1505 1505 1506 1506 1507 1507 1507 1508 1508 1507 1507 1507 1507 1507 1507 1506 1506 1505 1505 1504 1503 1503 1502 1501 1500 1500 1499 1498 1497 1497 1496 1495 1495
1495 1496 1497 1497 1498 1499 1499 1500 1500 1501 1502 1502 1502 1503 1503 1504 1504 1504 1504 1504 1504 1503 1503 1503 1503 1502 1502 1501 1500 1500 1500 1499 1498 1497 1496 1495 1494 1494 1493 1493 1492 1491 1491
1493 1494 1495 1496 1496 1496 1496 1497 1497 1498 1499 1499 1499 1499 1499 1500 1500 1500 1500 1500 1500 1499 1499 1499 1498 1498 1497 1496 1496 1495 1494 1494 1493 1493 1492 1491 1491 1490 1489 1489 1488 1487 1486
1491 1492 1492 1493 1493 1494 1494 1495 1495 1495 1495 1495 1495 1495 1496 1496 1496 1496 1496 1496 1495 1495 1495 1495 1494 1493 1493 1492 1491 1490 1490 1489 1489 1488 1487 1487 1486 1486 1485 1484 1483 1482 1481
1489 1489 1490 1490 1491 1491 1492 1492 1492 1492 1493 1493 1492 1493 1492 1492 1492 1492 1492 1491 1491 1491 1490 1490 1489 1488 1488 1487 1486 1486 1485 1485 1484 1483 1482 1482 1481 1480 1480 1479 1478 1477 1476
1486 1487 1487 1488 1488 1488 1489 1489 1489 1490 1490 1490 1490 1490 1489 1489 1489 1489 1488 1488 1487 1487 1486 1485 1484 1484 1483 1483 1482 1481 1480 1479 1479 1478 1477 1477 1476 1475 1474 1474 1473 1473 1471
1484 1485 1485 1486 1486 1486 1486 1486 1486 1486 1487 1487 1487 1486 1486 1486 1485 1485 1485 1484 1483 1483 1482 1481 1480 1480 1479 1479 1478 1477 1476 1475 1474 1473 1472 1471 1471 1470 1469 1468 1468 1467 1466
1483 1483 1484 1483 1483 1483 1483 1483 1483 1483 1483 1483 1484 1483 1483 1482 1482 1482 1481 1481 1480 1479 1478 1477 1476 1476 1475 1474 1474 1473 1472 1471 1470 1468 1467 1466 1466 1465 1464 1463 1462 1462 1461
1481 1482 1482 1482 1482 1481 1481 1481 1481 1481 1481 1480 1480 1480 1479 1479 1479 1478 1478 1477 1476 1475 1474 1473 1472 1472 1471 1470 1469 1468 1467 1465 1464 1463 1462 1461 1460 1459 1459 1458 1457 1456 1456
1480 1480 1480 1480 1480 1480 1479 1479 1479 1479 1478 1477 1477 1477 1476 1476 1475 1474 1474 1473 1472 1471 1470 1469 1468 1467 1466 1465 1464 1462 1461 1460 1459 1458 1457 1455 1455 1454 1453 1452 1452 1451 1450
1478 1478 1478 1478 1478 1478 1477 1477 1476 1476 1475 1475 1474 1474 1473 1472 1471 1470 1470 1469 1468 1467 1466 1465 1464 1463 1462 1460 1459 1458 1456 1455 1454 1453 1452 1450 1449 1448 1447 1446 1446 1445 1445
1476 1476 1476 1476 1476 1476 1475 1475 1474 1473 1473 1472 1471 1471 1470 1468 1467 1467 1466 1466 1465 1463 1462 1461 1460 1459 1457 1456 1454 1453 1451 1450 1448 1447 1446 1445 1444 1442 1441 1441 1440 1439 1439
1475 1475 1475 1475 1474 1474 1473 1472 1472 1471 1470 1469 1468 1467 1466 1465 1464 1463 1462 1461 1460 1459 1458 1457 1455 1454 1453 1451 1449 1448 1446 1444 1443 1442 1441 1439 1438 1437 1435 1435 1434 1433 1432
1473 1473 1473 1473 1472 1472 1471 1470 1469 1468 1467 1466 1465 1464 1463 1462 1462 1461 1459 1458 1457 1456 1454 1453 1452 1450 1448 1446 1444 1443 1441 1440 1438 1437 1435 1434 1432 1431 1430 1429 1428 1428 1427
1471 1472 1471 1471 1470 1470 1469 1468 1467 1466 1465 1464 1463 1462 1461 1460 1459 1458 1457 1455 1454 1452 1451 1449 1448 1446 1444 1442 1440 1438 1437 1435 1434 1432 1430 1429 1427 1426 1425 1424 1423 1422 1421
1470 1469 1469 1469 1468 1468 1467 1466 1465 1464 1463 1462 1461 1459 1458 1457 1456 1454 1453 1452 1450 1448 1447 1445 1443 1442 1440 1438 1436 1434 1432 1430 1428 1427 1425 1423 1422 1420 1419 1417 1417 1416 1415